Tracking 31027 objects as of 19-Jul-2025
HD Live streaming from Space Station
objects crossing your sky now

STARLINK-31176

Track STARLINK-31176 now!
10-day predictions
STARLINK-31176 is classified as:


NORAD ID: 58745
Int'l Code: 2024-005T
Perigee: 565.4 km
Apogee: 567.0 km
Inclination: 43.0 °
Period: 95.8 minutes
Semi major axis: 6937 km
RCS: Unknown
Launch date: January 7, 2024
Source: United States (US)
Launch site: AIR FORCE EASTERN TEST RANGE (AFETR)
Your satellite tracking list
FENGYUN 1C DEB
Track 1 satellite(s)




NASA's NSSDC Master Catalog

Two Line Element Set (TLE):
1 58745U 24005T   25199.62764636  .00002143  00000-0  17369-3 0  9995
2 58745  43.0044  53.3718 0001178 264.0764  95.9944 15.02533440 85212
Source of the keplerian elements: AFSPC